[[{"header":{"parameterUnit":"m.s-1","parameterCategory":1,"la1":30.2991,"la2":30.254,"lo1":-89.0895,"lo2":-89.0444,"dy":0.0017,"dx":0.0017,"nx":28,"ny":28,"refTime":"2024-02-09T03:00:00:Z","depth":0,"parameterNumber":2,"parameterNumberName":"U-component_of_WINDS"},"data":[0,0,0,0,0,0,0,0,0,0,0,0,0,0,0,0,0,0,0,0,0,0,0,0,0,0,0,0,0,0,0,0,0,0,0,0,0,0,0,0,0,0,0,0,0,0,0,0,0,0,0,0,0,0,0,0,0,0,-3.1112,-3.1112,0,-3.1142,-3.1142,-3.1142,-3.1114,-3.1113,-3.1111,-3.111,-3.1144,-3.1146,-3.1148,0,0,0,0,0,0,0,0,0,0,0,0,0,-3.1031,-3.1033,-3.1112,-3.1112,-3.1113,-3.1142,-3.1142,-3.1142,-3.1114,-3.1113,-3.1111,-3.111,-3.1143,-3.1145,-3.1148,0,0,0,0,0,0,0,0,0,0,0,0,0,-3.1064,-3.1033,-3.1112,-3.1102,-3.1101,-3.1142,-3.1142,-3.1143,-3.1114,-3.1113,-3.1111,-3.1109,-3.1142,-3.1145,-3.1148,-3.1201,0,0,-3.1157,-3.1158,0,0,0,0,0,0,0,0,-3.1063,-3.1067,-3.1103,-3.1103,-3.1102,-3.1122,-3.1126,-3.1162,-3.1115,-3.1109,-3.111,-3.1108,-3.1138,-3.1141,-3.1151,-3.1202,-3.1204,-3.1157,-3.1159,-3.116,-3.1161,0,0,0,0,0,0,0,-3.106,-3.1066,-3.1124,-3.1103,-3.1103,-3.1096,-3.1099,-3.1133,-3.1133,-3.111,-3.1108,-3.1111,-3.1138,-3.1148,-3.1151,-3.1204,-3.1157,-3.116,-3.1162,-3.1163,-3.1298,-3.13,0,0,0,0,0,0,-3.1059,-3.1064,-3.1123,-3.1125,-3.1077,-3.1099,-3.1102,-3.1117,-3.1133,-3.1133,-3.1113,-3.111,-3.1144,-3.1148,-3.1152,-3.1213,-3.116,-3.1163,-3.1165,-3.1296,-3.1299,-3.1301,0,0,0,0,0,0,-3.1057,-3.1064,-3.1122,-3.1094,-3.1101,-3.1102,-3.112,-3.1119,-3.1129,-3.1135,-3.1135,-3.1123,-3.1143,-3.1148,-3.1188,-3.1214,-3.1164,-3.1167,-3.1294,-3.1297,-3.13,-3.1337,0,0,0,0,0,0,-3.1055,-3.1064,-3.1084,-3.1094,-3.1102,-3.1157,-3.1121,-3.1121,-3.1134,-3.1131,-3.1145,-3.1146,-3.1142,-3.1184,-3.1191,-3.1217,-3.1169,-3.1292,-3.1295,-3.1299,-3.1333,-3.134,-3.1346,0,0,0,0,0,-3.1052,-3.1094,-3.1085,-3.1092,-3.1127,-3.1158,-3.1163,-3.1156,-3.1136,-3.1156,-3.116,-3.1145,-3.121,-3.1188,-3.1196,-3.1224,-3.129,-3.1294,-3.1298,-3.133,-3.1339,-3.1346,0,0,0,0,0,0,-3.1088,-3.1095,-3.1085,-3.1132,-3.1144,-3.1153,-3.1178,-3.1166,-3.1186,-3.1182,-3.1174,-3.1178,-3.1219,-3.1226,-3.1201,-3.1274,-3.1247,-3.1253,-3.1268,-3.1277,-3.1283,-3.1281,-3.1172,0,0,0,0,0,-3.1101,-3.1125,-3.1131,-3.1171,-3.1178,-3.1177,-3.119,-3.1184,-3.1197,-3.1203,-3.1209,-3.1223,-3.1246,-3.1262,-3.1284,-3.1334,-3.1336,-3.1357,-3.1363,-3.1369,-3.1374,-3.1399,-3.1407,-3.1314,-3.1314,-3.1314,0,0,-3.1129,-3.1136,-3.1152,-3.1178,-3.1187,-3.1212,-3.1182,-3.121,-3.1229,-3.1208,-3.1245,-3.125,-3.1265,-3.1309,-3.1329,-3.1316,-3.14,-3.1374,-3.1378,-3.138,-3.1404,-3.1413,-3.1421,-3.1317,-3.1316,-3.1316,0,0,-3.1191,-3.12,-3.1233,-3.1242,-3.1256,-3.1254,-3.1263,-3.1273,-3.1275,-3.1312,-3.1296,-3.1318,-3.1359,-3.137,-3.1381,-3.1445,-3.1432,-3.1453,-3.1488,-3.1512,-3.152,-3.1526,-3.1548,-3.1556,-3.1458,-3.1458,-3.1458,0,-3.1224,-3.1261,-3.1252,-3.1281,-3.1293,-3.1273,-3.1307,-3.1317,-3.1337,-3.1346,-3.133,-3.1379,-3.1388,-3.1434,-3.145,-3.146,-3.1468,-3.1451,-3.1519,-3.1526,-3.1531,-3.1552,-3.156,-3.1461,-3.146,-3.146,-3.146,0,-3.13,-3.1325,-3.1351,-3.1369,-3.1384,-3.1415,-3.1411,-3.1427,-3.142,-3.142,-3.1457,-3.1467,-3.149,-3.15,-3.1494,-3.1545,-3.1536,-3.152,-3.1492,-3.1543,-3.1562,-3.157,-3.1464,-3.1463,-3.1462,-3.1462,0,0,-3.1386,-3.1398,-3.1407,-3.1414,-3.1427,-3.1447,-3.1477,-3.1498,-3.1511,-3.1526,-3.155,-3.1584,-3.1568,-3.1581,-3.1575,-3.1597,-3.1646,-3.1578,-3.1578,-3.1589,-3.17,-3.1711,-3.1721,-3.1637,-3.1639,-3.164,-3.1699,0,-3.1448,-3.1499,-3.1491,-3.154,-3.1563,-3.1544,-3.157,-3.1581,-3.1582,-3.1601,-3.1603,-3.1626,-3.1605,-3.1612,-3.1633,-3.1635,-3.1668,-3.1631,-3.166,-3.1661,-3.1655,-3.1731,-3.1743,-3.1798,-3.1706,-3.1707,-3.1708,0,-3.1528,-3.1543,-3.1593,-3.16,-3.161,-3.1633,-3.165,-3.167,-3.1681,-3.168,-3.1693,-3.1683,-3.1713,-3.1685,-3.1725,-3.17,-3.1712,-3.1715,-3.1717,-3.1718,-3.1687,-3.1733,-3.1815,-3.1823,-3.172,-3.1719,-3.1719,0,-3.1584,-3.1617,-3.1651,-3.1658,-3.1668,-3.1684,-3.1689,-3.1698,-3.1711,-3.1726,-3.1734,-3.1754,-3.1764,-3.1779,-3.1775,-3.1755,-3.1816,-3.1788,-3.1815,-3.1816,-3.1829,-3.1828,-3.1912,-3.1838,-3.1838,-3.1838,-3.1838,0,-3.1653,-3.1684,-3.1676,-3.1697,-3.1731,-3.1722,-3.1757,-3.1759,-3.1768,-3.1789,-3.1774,-3.1795,-3.1788,-3.1808,-3.1805,-3.1838,-3.1843,-3.1843,-3.1842,-3.1844,-3.1844,-3.185,-3.1846,-3.184,-3.1839,-3.1839,-3.1839,0,-3.1721,-3.1717,-3.1753,-3.1758,-3.176,-3.1785,-3.179,-3.1809,-3.1808,-3.1835,-3.1841,-3.184,-3.1862,-3.1859,-3.1885,-3.1883,-3.1924,-3.1919,-3.1919,-3.1918,-3.1945,-3.1942,-3.2036,-3.2047,-3.1967,-3.1967,-3.1968,0,-3.1765,-3.1789,-3.1796,-3.1808,-3.1813,-3.1834,-3.1846,-3.1837,-3.185,-3.1864,-3.1882,-3.1902,-3.1918,-3.1955,-3.1957,-3.1976,-3.1971,-3.2002,-3.1974,-3.1974,-3.1969,-3.1967,-3.1969,-3.2008,-3.2009,-3.2009,-3.201,0,-3.1843,-3.1839,-3.1856,-3.1872,-3.1886,-3.1899,-3.191,-3.1921,-3.1914,-3.1929,-3.1951,-3.1963,-3.1988,-3.2008,-3.2026,-3.2032,-3.2019,-3.2019,-3.2026,-3.2028,-3.2027,-3.2026,-3.1933,-3.2017,-3.2016,-3.2016,-3.2015,-3.2015,-3.19,-3.1919,-3.1926,-3.1945,-3.1952,-3.1962,-3.198,-3.198,-3.1998,-3.2016,-3.2011,-3.2035,-3.2045,-3.2067,-3.2074,-3.2093,-3.2081,-3.2092,-3.2095,-3.2097,-3.2099,-3.2024,-3.2097,-3.2096,-3.2096,-3.2096,-3.2096,0,-3.1976,-3.1979,-3.1996,-3.2011,-3.2025,-3.2012,-3.2023,-3.2036,-3.2057,-3.2066,-3.2082,-3.2106,-3.2125,-3.2128,-3.2146,-3.2161,-3.2156,-3.2166,-3.2164,-3.2165,-3.211,-3.2101,-3.217,-3.217,-3.217,-3.217,-3.217,-3.217,-3.2017,-3.2047,-3.2044,-3.2078,-3.2081,-3.2103,-3.2111,-3.212,-3.2127,-3.2154,-3.2169,-3.217,-3.2177,-3.2195,-3.2212,-3.2212,-3.2219,-3.2231,-3.2229,-3.2177,-3.217,-3.2163,-3.2154,-3.2233,-3.2233,-3.2283,-3.2284,-3.2284]},{"header":{"parameterUnit":"m.s-1","parameterCategory":1,"la1":30.2991,"la2":30.254,"lo1":-89.0895,"lo2":-89.0444,"dy":0.0017,"dx":0.0017,"nx":28,"ny":28,"refTime":"2024-02-09T03:00:00:Z","depth":0,"parameterNumber":3,"parameterNumberName":"V-component_of_WINDS"},"data":[0,0,0,0,0,0,0,0,0,0,0,0,0,0,0,0,0,0,0,0,0,0,0,0,0,0,0,0,0,0,0,0,0,0,0,0,0,0,0,0,0,0,0,0,0,0,0,0,0,0,0,0,0,0,0,0,0,0,0.4096,0.4095,0,0.4017,0.4016,0.4015,0.405,0.4052,0.4053,0.4055,0.3965,0.3961,0.3957,0,0,0,0,0,0,0,0,0,0,0,0,0,0.4268,0.4265,0.4096,0.4095,0.4094,0.4017,0.4016,0.4015,0.4049,0.4052,0.4054,0.4056,0.3967,0.3962,0.3956,0,0,0,0,0,0,0,0,0,0,0,0,0,0.4191,0.4264,0.4096,0.4102,0.4102,0.4017,0.4016,0.4014,0.4049,0.4052,0.4055,0.4057,0.3968,0.3962,0.3956,0.3858,0,0,0.3936,0.3934,0,0,0,0,0,0,0,0,0.4196,0.4185,0.4102,0.4102,0.4101,0.4046,0.4043,0.3961,0.4048,0.4069,0.4055,0.4059,0.3989,0.3981,0.396,0.3853,0.385,0.3936,0.3932,0.3929,0.3927,0,0,0,0,0,0,0,0.4201,0.4188,0.4064,0.4101,0.41,0.4106,0.4098,0.4028,0.4013,0.4067,0.4069,0.406,0.3989,0.3966,0.3958,0.3848,0.3936,0.393,0.3926,0.3924,0.3655,0.3652,0,0,0,0,0,0,0.4207,0.4193,0.4067,0.4062,0.4157,0.41,0.4092,0.4061,0.4014,0.401,0.4058,0.4062,0.3975,0.3965,0.3955,0.3836,0.3929,0.3923,0.392,0.3659,0.3655,0.3651,0,0,0,0,0,0,0.4211,0.4196,0.407,0.4128,0.4112,0.4094,0.4059,0.4058,0.4034,0.4007,0.4003,0.4037,0.3977,0.3964,0.3882,0.3834,0.392,0.3915,0.3663,0.3657,0.3653,0.3599,0,0,0,0,0,0,0.4216,0.4197,0.4162,0.4127,0.4109,0.4001,0.4056,0.4054,0.4024,0.4029,0.3987,0.3982,0.3978,0.3891,0.3875,0.3826,0.391,0.3667,0.366,0.3654,0.3605,0.3592,0.3582,0,0,0,0,0,0.4222,0.4148,0.416,0.4144,0.4065,0.3998,0.3988,0.3988,0.402,0.3983,0.3965,0.3984,0.3841,0.3882,0.3865,0.3813,0.367,0.3662,0.3655,0.361,0.3595,0.3582,0,0,0,0,0,0,0.4175,0.4143,0.4156,0.407,0.4037,0.4005,0.3958,0.3972,0.3927,0.3933,0.3931,0.3921,0.3837,0.3817,0.3863,0.3715,0.376,0.3749,0.3732,0.3717,0.3706,0.3712,0.3904,0,0,0,0,0,0.4155,0.4106,0.408,0.4006,0.3989,0.3976,0.3947,0.395,0.3914,0.39,0.3876,0.3838,0.3785,0.375,0.3699,0.3602,0.3592,0.3557,0.3546,0.3537,0.3527,0.3472,0.3456,0.3626,0.3627,0.3627,0,0,0.4112,0.4089,0.4058,0.3996,0.3971,0.3917,0.3964,0.3906,0.3865,0.389,0.3812,0.3793,0.375,0.366,0.3619,0.3641,0.3477,0.3527,0.352,0.3515,0.3463,0.3446,0.3432,0.3621,0.3622,0.3623,0,0,0.4007,0.3985,0.3921,0.3895,0.3858,0.3849,0.3834,0.3799,0.3788,0.3711,0.3728,0.3677,0.3586,0.3555,0.3527,0.3409,0.3424,0.3392,0.3333,0.328,0.3266,0.3254,0.3211,0.3196,0.3383,0.3383,0.3382,0,0.3958,0.3882,0.3885,0.3826,0.3797,0.382,0.3753,0.3726,0.3672,0.3651,0.3676,0.3562,0.3535,0.3437,0.3409,0.3385,0.3365,0.3398,0.3269,0.3257,0.3245,0.3204,0.3188,0.3379,0.3379,0.338,0.338,0,0.3823,0.3769,0.3721,0.3672,0.3637,0.3574,0.3566,0.353,0.3535,0.3523,0.3442,0.341,0.3354,0.333,0.3334,0.3232,0.3247,0.327,0.3316,0.3226,0.3187,0.3171,0.3374,0.3375,0.3376,0.3377,0,0,0.3687,0.3641,0.3623,0.3601,0.356,0.3517,0.3453,0.3401,0.3369,0.333,0.3276,0.3198,0.3219,0.3187,0.3187,0.314,0.3047,0.3169,0.3168,0.3147,0.2932,0.2915,0.2896,0.3057,0.3054,0.3051,0.2935,0,0.3579,0.3472,0.3473,0.3372,0.3322,0.3341,0.3285,0.3252,0.3239,0.3191,0.3175,0.312,0.3153,0.3134,0.3088,0.3069,0.3004,0.3077,0.3003,0.3001,0.3014,0.2876,0.2858,0.275,0.292,0.2918,0.2916,0,0.344,0.34,0.3295,0.3261,0.3239,0.319,0.3141,0.3096,0.3058,0.3051,0.3016,0.3022,0.2954,0.3001,0.2906,0.2956,0.2925,0.291,0.2906,0.2899,0.2953,0.2865,0.2716,0.2699,0.2892,0.2894,0.2896,0,0.3351,0.327,0.3197,0.3177,0.3135,0.31,0.308,0.3046,0.3013,0.2969,0.2948,0.2895,0.2865,0.2823,0.2814,0.2849,0.2718,0.2765,0.2708,0.2708,0.268,0.2682,0.2523,0.266,0.266,0.2661,0.2661,0,0.3231,0.3165,0.3157,0.3111,0.3038,0.3038,0.2964,0.2947,0.2915,0.2865,0.2877,0.2828,0.282,0.2768,0.276,0.2681,0.2668,0.2658,0.2657,0.2657,0.2659,0.2637,0.2644,0.2656,0.2657,0.2658,0.2659,0,0.3119,0.3111,0.3032,0.3,0.299,0.2937,0.2908,0.2863,0.2851,0.2786,0.2771,0.2751,0.2691,0.2677,0.2605,0.2599,0.2506,0.2512,0.252,0.2521,0.2465,0.247,0.2287,0.2262,0.2416,0.2414,0.2413,0,0.3043,0.2994,0.2957,0.2925,0.2905,0.2854,0.2821,0.2818,0.2783,0.2736,0.2696,0.2638,0.2591,0.2494,0.247,0.2414,0.2419,0.2358,0.241,0.2412,0.2417,0.242,0.2414,0.2348,0.2347,0.2345,0.2344,0,0.2909,0.2907,0.2862,0.2815,0.2776,0.2738,0.2702,0.2674,0.2665,0.2625,0.2566,0.253,0.2457,0.2398,0.2342,0.2318,0.2328,0.2328,0.2312,0.2312,0.2319,0.2314,0.2493,0.2332,0.2334,0.2334,0.2335,0.2335,0.2813,0.277,0.2737,0.2685,0.2658,0.2623,0.258,0.2562,0.2514,0.2457,0.2456,0.2391,0.2351,0.2278,0.225,0.2196,0.2215,0.2192,0.2186,0.218,0.2175,0.2327,0.2186,0.2186,0.2187,0.2187,0.2187,0,0.2679,0.2659,0.2612,0.2561,0.252,0.2536,0.2496,0.2459,0.2403,0.2367,0.2321,0.2251,0.2194,0.2166,0.2108,0.2071,0.2074,0.2055,0.2058,0.2052,0.2162,0.2182,0.2054,0.2054,0.2054,0.2054,0.2054,0.2054,0.2605,0.2532,0.2526,0.2439,0.2418,0.2357,0.2332,0.2299,0.227,0.2193,0.2147,0.213,0.2096,0.2036,0.1983,0.1976,0.1953,0.1933,0.1928,0.2031,0.2044,0.2057,0.2076,0.1928,0.1928,0.1822,0.1821,0.182]}]]